New Orleans Lakefront, LA

4:43 AM CDT on June 29, 2017 (GMT -0500)
Lakefront

Weather History for KNEW - March, 2013

Change the Weather History Date:

Wednesday, March 6, 2013

  Actual Average Record
Temperature  
Mean Temperature 54 °F 61 °F  
Max Temperature 62 °F 70 °F 84 °F (1955)
Min Temperature 45 °F 52 °F 31 °F (1960)
Degree Days  
Heating Degree Days 11 6  
Month to date heating degree days 74 36  
Since 1 July heating degree days 963 1145  
Cooling Degree Days 0 2  
Month to date cooling degree days 0 7  
Year to date cooling degree days 32 44  
Growing Degree Days 6 (Base 50)    
Moisture  
Dew Point 34 °F    
Average Humidity 46    
Maximum Humidity 66    
Minimum Humidity 25    
Precipitation  
Precipitation 0.00 in 0.15 in 1.35 in (1998)
Month to date precipitation T 0.92  
Year to date precipitation 13.80 11.37  
Snow  
Snow 0.00 in - - ()
Month to date snowfall 0.0  
Since 1 July snowfall 0.0  
Snow Depth 0.00 in    
Sea Level Pressure  
Sea Level Pressure 30.26 in    
Wind  
Wind Speed 11 mph (NNW)    
Max Wind Speed 21 mph    
Max Gust Speed 25 mph    
Visibility 10 miles    
Events      
T = Trace of Precipitation, MM = Missing Value Source: NWS Daily Summary

Daily Weather History Graph

Daily Weather History Graph

Search for Another Location

Airport or City:

Trip Planner

Search our weather history database for the weather conditions in past years. The results will help you decide how hot, cold, wet, or windy it might be!

Date:

Astronomy

Mar. 06, 2013 Rise Set
Actual Time 6:20 AM CST 6:02 PM CST
Civil Twilight 5:56 AM CST 6:26 PM CST
Nautical Twilight 5:28 AM CST 6:54 PM CST
Astronomical Twilight 5:00 AM CST 7:22 PM CST
Moon 2:11 AM CST (3/6) 1:01 PM CST (3/6)
Length of Visible Light 12h 30m
Length of Day
11h 42m
Waning Crescent, 29% of the Moon is Illuminated
Mar 6
Waning Crescent
Mar 11
New
Mar 19
First Quarter
Mar 27
Full
Apr 2
Last Quarter

Hourly Weather History & Observations

Time (CST) Temp. Dew Point Humidity Pressure Visibility Wind Dir Wind Speed Gust Speed Precip Events Conditions
12:53 AM 59.0 °F 39.0 °F 48% 30.20 in 10.0 mi North 19.6 mph - N/A   Clear
1:53 AM 57.0 °F 34.0 °F 42% 30.21 in 10.0 mi North 23.0 mph 27.6 mph N/A   Clear
2:53 AM 55.0 °F 30.9 °F 40% 30.22 in 10.0 mi North 23.0 mph 29.9 mph N/A   Clear
3:53 AM 53.1 °F 28.0 °F 38% 30.23 in 10.0 mi North 19.6 mph 31.1 mph N/A   Clear
4:53 AM 52.0 °F 28.0 °F 40% 30.27 in 10.0 mi North 18.4 mph 21.9 mph N/A   Clear
5:53 AM 51.1 °F 28.0 °F 41% 30.29 in 10.0 mi North 20.7 mph - N/A   Clear
6:53 AM 51.1 °F 27.0 °F 39% 30.31 in 10.0 mi North 17.3 mph 24.2 mph N/A   Clear
7:53 AM 52.0 °F 28.0 °F 40% 30.33 in 10.0 mi North 16.1 mph - N/A   Clear
8:53 AM 53.1 °F 28.9 °F 40% 30.33 in 10.0 mi North 15.0 mph 21.9 mph N/A   Clear
9:53 AM 54.0 °F 28.0 °F 37% 30.32 in 10.0 mi NNW 12.7 mph - N/A   Clear
10:53 AM 55.9 °F 28.9 °F 36% 30.32 in 10.0 mi NNW 12.7 mph - N/A   Clear
11:53 AM 57.0 °F 28.9 °F 34% 30.30 in 10.0 mi NW 11.5 mph - N/A   Clear
12:53 PM 57.0 °F 30.9 °F 37% 30.26 in 10.0 mi West 10.4 mph - N/A   Clear
1:53 PM 59.0 °F 34.0 °F 39% 30.23 in 10.0 mi West 12.7 mph - N/A   Clear
2:53 PM 60.1 °F 34.0 °F 38% 30.21 in 10.0 mi West 11.5 mph - N/A   Clear
3:53 PM 62.1 °F 36.0 °F 38% 30.20 in 10.0 mi West 10.4 mph - N/A   Clear
4:53 PM 62.1 °F 39.9 °F 44% 30.19 in 10.0 mi West 8.1 mph - N/A   Clear
5:53 PM 61.0 °F 42.1 °F 50% 30.21 in 10.0 mi West 5.8 mph - N/A   Clear
6:53 PM 60.1 °F 42.1 °F 51% 30.22 in 10.0 mi NNW 6.9 mph - N/A   Clear
7:53 PM 59.0 °F 45.0 °F 60% 30.24 in 10.0 mi North 10.4 mph - N/A   Clear
8:53 PM 59.0 °F 37.0 °F 44% 30.26 in 10.0 mi North 16.1 mph - N/A   Clear
9:53 PM 57.0 °F 35.1 °F 44% 30.27 in 10.0 mi North 18.4 mph - N/A   Clear
10:53 PM 55.0 °F 35.1 °F 47% 30.27 in 10.0 mi NNE 16.1 mph - N/A   Clear
11:53 PM 54.0 °F 36.0 °F 51% 30.27 in 10.0 mi NNE 12.7 mph - N/A   Clear